This is the latest recevied weather packets stored in our database for station/object OK1PNK-5. If no packets are shown the sender has not sent any weather packets the latest 1 day(s).
| Time | Temp. | Humidity | Pressure | Rain* | Wind** | Luminosity | Snow |
|---|---|---|---|---|---|---|---|
| 1778059794 | 17.78° C | 77% | 965.7 hPa | 0 mm | - | - | - |
| 1778059194 | 17.22° C | 77% | 965.7 hPa | 0 mm | - | - | - |
| 1778058594 | 16.67° C | 78% | 965.8 hPa | 0 mm | - | - | - |
| 1778057994 | 16.67° C | 78% | 965.8 hPa | 0 mm | - | - | - |
| 1778057394 | 16.67° C | 79% | 965.6 hPa | 0 mm | - | - | - |
| 1778056794 | 16.11° C | 80% | 965.5 hPa | 0 mm | - | - | - |
| 1778056194 | 16.11° C | 81% | 965.6 hPa | 0 mm | - | - | - |
| 1778055594 | 15.56° C | 82% | 965.6 hPa | 0 mm | - | - | - |
| 1778054994 | 15.56° C | 83% | 965.4 hPa | 0 mm | - | - | - |
| 1778054394 | 15° C | 84% | 965.5 hPa | 0 mm | - | - | - |
| 1778053794 | 15° C | 84% | 965.6 hPa | 0 mm | - | - | - |
| 1778053194 | 15° C | 85% | 965.5 hPa | 0 mm | - | - | - |
| 1778052594 | 15° C | 86% | 965.5 hPa | 0 mm | - | - | - |
| 1778051394 | 14.44° C | 88% | 965.6 hPa | 0 mm | - | - | - |
| 1778050794 | 14.44° C | 89% | 965.7 hPa | 0 mm | - | - | - |
| 1778050194 | 12.78° C | 88% | 965.5 hPa | 0 mm | - | - | - |
| 1778049594 | 12.78° C | 88% | 965.5 hPa | 0 mm | - | - | - |
| 1778048994 | 12.78° C | 88% | 965.5 hPa | 0 mm | - | - | - |
| 1778048394 | 12.78° C | 88% | 965.5 hPa | 0 mm | - | - | - |
| 1778047794 | 12.78° C | 88% | 965.5 hPa | 0 mm | - | - | - |
| 1778047194 | 12.78° C | 88% | 965.5 hPa | 0 mm | - | - | - |
| 1778046594 | 12.78° C | 88% | 965.3 hPa | 0 mm | - | - | - |
| 1778045994 | 12.78° C | 88% | 965.4 hPa | 0 mm | - | - | - |
| 1778045394 | 12.22° C | 88% | 965.5 hPa | 0 mm | - | - | - |
| 1778044794 | 12.22° C | 88% | 965.6 hPa | 0 mm | - | - | - |
* Rain latest hour (hover to see other rain measurements)
** Current wind speed in m/s (hover to see current wind gust speed)